Total_Precipitation_Accumulation
0.04 0.03 0.04 0.05 0.07 0.09 0.12 0.17 0.31 0.38 0.32 0.43 0.57 0.84 0.95 1.05 1.23 1.20 1.07 1.10 1.38 1.57 1.87 2.35 2.91 3.75 4.85 5.82 6.14 5.64 5.18 4.88 4.48 4.13 3.55 3.23 3.34 3.31 3.08 2.77 2.45 2.40 2.30 2.35
0.04 0.05 0.04 0.04 0.07 0.09 0.13 0.18 0.29 0.36 0.29 0.35 0.59 0.91 1.23 1.19 1.11 1.06 1.13 1.15 1.25 1.60 2.04 2.78 3.82 4.40 4.68 4.84 4.60 4.28 4.05 3.86 3.38 3.14 3.05 2.86 2.94 2.71 2.56 2.50 2.60 2.22 2.08 2.14
0.06 0.07 0.06 0.05 0.07 0.15 0.16 0.20 0.27 0.35 0.26 0.34 0.61 1.15 1.46 1.38 1.12 0.96 1.04 1.09 1.25 1.64 2.23 3.06 3.66 3.79 3.55 3.22 3.09 3.05 3.16 2.93 2.81 2.89 2.84 2.79 2.89 2.63 2.45 2.41 2.56 2.19 1.89 1.87
0.08 0.07 0.05 0.05 0.08 0.14 0.18 0.15 0.13 0.16 0.26 0.50 0.73 1.42 1.59 1.37 1.29 1.07 1.10 1.12 1.14 1.40 1.79 2.22 2.50 2.40 2.49 2.63 2.64 2.79 2.89 2.64 2.66 2.63 2.40 2.34 2.32 2.23 2.21 2.27 2.38 2.42 1.99 1.79
0.08 0.07 0.06 0.07 0.07 0.08 0.09 0.08 0.10 0.18 0.33 0.56 0.79 1.14 1.33 1.14 1.30 1.08 0.97 0.97 0.91 1.10 1.27 1.39 1.50 1.62 1.81 1.95 2.13 2.40 2.67 2.63 2.49 2.33 2.33 2.39 2.25 2.25 2.25 2.29 2.38 2.46 2.24 1.95
0.07 0.06 0.06 0.06 0.06 0.06 0.08 0.10 0.20 0.32 0.52 1.05 1.03 1.06 1.30 1.31 1.32 1.13 0.97 0.82 0.83 0.95 1.10 1.17 1.20 1.32 1.49 1.64 1.87 2.12 2.45 2.54 2.46 2.32 2.25 2.31 2.38 2.38 2.33 2.37 2.36 2.18 2.14 2.12
0.13 0.09 0.07 0.06 0.07 0.08 0.10 0.15 0.39 0.75 1.12 1.30 0.86 0.94 1.23 1.15 1.01 0.89 0.67 0.62 0.72 0.89 1.04 1.16 1.18 1.18 1.26 1.41 1.54 1.63 1.89 2.15 2.26 2.22 2.19 2.20 2.38 2.32 2.15 2.07 2.05 2.04 1.85 1.79
0.17 0.14 0.07 0.06 0.07 0.09 0.08 0.10 0.24 0.41 0.52 0.67 0.84 1.23 1.36 1.13 0.76 0.50 0.48 0.60 0.77 0.90 0.97 1.08 1.10 1.05 1.08 1.16 1.34 1.51 1.80 1.95 2.14 2.16 2.13 2.16 2.24 2.13 1.98 2.01 1.81 1.81 1.76 1.67
0.09 0.07 0.06 0.05 0.07 0.08 0.09 0.09 0.11 0.18 0.22 0.47 0.86 1.17 1.15 0.97 0.75 0.58 0.55 0.60 0.76 0.81 0.80 0.93 0.97 1.10 1.15 1.10 1.22 1.40 1.69 2.02 2.23 2.30 2.33 2.25 2.24 2.23 2.17 2.09 1.86 1.68 1.82 1.72
0.05 0.06 0.07 0.05 0.07 0.08 0.09 0.10 0.13 0.15 0.23 0.40 0.70 1.12 1.35 1.17 0.93 0.76 0.66 0.66 0.75 0.77 0.80 1.01 1.18 1.22 1.10 0.98 1.06 1.20 1.50 2.00 2.26 2.40 2.34 2.17 2.31 2.22 2.19 2.10 1.92 1.77 1.76 1.80
0.03 0.04 0.07 0.07 0.08 0.10 0.09 0.11 0.14 0.16 0.17 0.26 0.55 0.80 0.79 0.81 0.73 0.71 0.77 0.75 0.63 0.69 0.85 1.09 1.35 1.30 1.04 0.92 0.92 1.07 1.45 1.79 2.01 2.16 2.21 2.07 2.02 1.95 1.95 1.97 1.93 1.91 1.91 1.88
0.03 0.04 0.05 0.08 0.10 0.10 0.11 0.13 0.17 0.20 0.19 0.18 0.32 0.57 0.45 0.54 0.63 0.71 0.83 0.89 0.84 0.87 0.93 1.00 1.16 1.29 1.18 1.05 0.99 1.19 1.49 1.68 1.79 1.88 1.92 1.91 1.91 1.89 1.81 1.77 1.85 1.92 1.84 1.75
0.04 0.04 0.06 0.15 0.21 0.16 0.12 0.12 0.15 0.19 0.22 0.18 0.34 0.60 0.46 0.42 0.65 0.75 0.82 0.99 1.10 0.86 0.76 0.81 0.96 1.10 1.21 1.18 1.17 1.33 1.51 1.58 1.62 1.58 1.64 1.66 1.67 1.64 1.62 1.64 1.69 1.77 1.79 1.79
0.04 0.04 0.05 0.14 0.22 0.22 0.17 0.14 0.16 0.16 0.15 0.16 0.25 0.53 0.49 0.47 0.68 0.96 1.02 1.01 0.85 0.79 0.78 0.79 0.89 1.09 1.18 1.25 1.25 1.28 1.42 1.55 1.54 1.47 1.54 1.70 1.78 1.82 1.82 1.76 1.80 1.90 1.99 1.92
0.05 0.04 0.03 0.04 0.09 0.15 0.17 0.18 0.16 0.12 0.11 0.16 0.20 0.38 0.42 0.54 0.71 0.88 0.90 0.80 0.73 0.80 0.83 0.83 0.91 1.09 1.22 1.40 1.44 1.41 1.43 1.49 1.62 1.72 1.79 1.99 2.17 2.22 2.12 2.08 2.15 2.17 2.22 2.15
0.05 0.05 0.04 0.05 0.08 0.14 0.16 0.18 0.13 0.09 0.09 0.13 0.19 0.31 0.39 0.54 0.65 0.73 0.72 0.70 0.81 0.85 0.84 0.78 0.89 1.11 1.18 1.22 1.31 1.33 1.38 1.45 1.52 1.60 1.76 1.99 2.20 2.32 2.30 2.34 2.49 2.50 2.45 2.56
0.08 0.08 0.07 0.08 0.11 0.13 0.22 0.18 0.14 0.14 0.13 0.16 0.25 0.31 0.37 0.50 0.65 0.78 0.80 0.84 0.89 0.90 0.86 0.85 0.86 0.99 1.21 1.15 1.16 1.28 1.39 1.53 1.67 1.91 2.10 2.18 2.33 2.50 2.50 2.45 2.49 2.53 2.57 2.57
0.19 0.18 0.16 0.14 0.17 0.25 0.25 0.21 0.20 0.23 0.28 0.28 0.32 0.38 0.46 0.56 0.70 0.83 0.88 0.87 0.99 1.08 1.15 1.20 1.26 1.26 1.35 1.30 1.31 1.40 1.54 1.70 1.77 1.86 2.03 2.16 2.36 2.50 2.57 2.65 2.64 2.72 2.84 2.86
0.30 0.33 0.28 0.24 0.26 0.30 0.31 0.31 0.34 0.39 0.51 0.55 0.60 0.65 0.67 0.70 0.75 0.90 1.02 1.09 1.19 1.16 1.23 1.35 1.42 1.45 1.46 1.51 1.64 1.81 1.85 1.99 2.15 2.27 2.43 2.52 2.56 2.65 2.70 2.73 2.87 2.99 3.11 3.10
0.34 0.40 0.40 0.34 0.43 0.50 0.51 0.49 0.46 0.55 0.88 0.78 0.86 0.96 0.96 1.02 1.26 1.33 1.32 1.31 1.35 1.32 1.36 1.45 1.47 1.52 1.72 1.78 1.85 2.02 2.21 2.35 2.54 2.71 2.82 2.89 2.93 2.94 2.89 2.88 2.99 3.06 3.11 3.12
0.44 0.50 0.50 0.47 0.50 0.54 0.55 0.55 0.55 0.96 1.32 1.25 1.26 1.30 1.23 1.37 1.47 1.35 1.27 1.40 1.46 1.52 1.58 1.60 1.62 1.71 1.84 1.92 2.00 2.17 2.45 2.70 2.91 2.95 2.99 3.03 3.10 3.22 3.32 3.36 3.17 3.02 3.01 3.08
0.73 0.77 0.75 0.72 0.88 0.95 0.67 0.74 1.11 1.38 1.32 1.54 1.43 1.28 1.30 1.31 1.27 1.22 1.23 1.40 1.57 1.69 1.73 1.76 1.78 1.82 1.87 2.01 2.16 2.28 2.52 2.66 2.85 2.89 3.00 3.06 3.07 2.98 2.99 3.24 3.29 3.24 3.15 3.05
1.01 1.05 1.09 1.06 1.18 1.07 0.89 0.96 1.23 1.28 1.29 1.43 1.43 1.23 1.20 1.21 1.15 1.17 1.24 1.35 1.50 1.60 1.67 1.68 1.73 1.88 1.89 1.92 2.11 2.39 2.46 2.53 2.58 2.70 2.82 3.00 3.08 3.12 3.07 3.04 3.13 3.13 3.07 2.91
1.22 1.04 1.20 1.40 1.42 1.28 1.12 1.01 1.09 1.16 1.23 1.28 1.41 1.41 1.30 1.24 1.19 1.24 1.27 1.31 1.49 1.63 1.67 1.72 1.68 1.71 1.83 1.93 2.10 2.20 2.24 2.37 2.60 2.71 2.74 2.80 2.88 2.93 2.99 3.07 3.02 2.98 2.98 2.92
1.32 1.29 1.52 1.91 1.96 1.80 1.63 1.40 1.29 1.26 1.28 1.37 1.49 1.55 1.60 1.55 1.47 1.48 1.41 1.41 1.52 1.61 1.59 1.67 1.75 1.78 1.85 1.92 2.07 2.22 2.27 2.32 2.45 2.49 2.44 2.51 2.68 2.77 2.83 2.97 3.03 2.87 2.76 2.79
1.33 1.56 1.94 2.28 2.11 2.12 1.98 1.62 1.46 1.48 1.57 1.57 1.58 1.62 1.60 1.59 1.56 1.58 1.60 1.52 1.44 1.42 1.54 1.69 1.76 1.83 1.86 1.90 1.99 2.04 2.09 2.23 2.38 2.45 2.45 2.44 2.49 2.63 2.72 2.68 2.75 2.77 2.52 2.46